FW1564 Weather Reports


time (UTC)temp
C
wind
direction
speed
KPH
gust
KPH
rain 1hr
cm
rain 24hr
cm
rain mn
cm
humidity
%
barometer
mb
20200224175505 20 340 6.4 12.9 0.00 0.00 0.00 59 1028.2
20200224174511 20 199 0.0 12.9 0.00 0.00 0.00 57 1028.3
20200224173504 21 299 6.4 12.9 0.00 0.00 0.00 56 1028.2
20200224172507 21 214 6.4 16.1 0.00 0.00 0.00 56 1028.2
20200224171510 21 235 0.0 8.0 0.00 0.00 0.00 53 1028.1
20200224170503 21 122 0.0 12.9 0.00 0.00 0.00 53 1028.3
20200224165508 21 258 3.2 16.1 0.00 0.00 0.00 53 1028.4
20200224164510 21 218 12.9 20.9 0.00 0.00 0.00 51 1028.4
20200224163510 22 208 9.7 24.1 0.00 0.00 0.00 49 1028.5
20200224162504 22 181 14.5 27.4 0.00 0.00 0.00 50 1028.5
20200224161506 22 199 14.5 24.1 0.00 0.00 0.00 47 1028.4
20200224160442 22 204 12.9 20.9 0.00 0.00 0.00 46 1028.4
20200224155440 22 206 14.5 24.1 0.00 0.00 0.00 46 1028.4
20200224154428 23 210 9.7 27.4 0.00 0.00 0.00 44 1028.5
20200224153427 23 205 14.5 27.4 0.00 0.00 0.00 44 1028.5
20200224152412 23 203 8.0 27.4 0.00 0.00 0.00 42 1028.3
20200224151359 23 202 3.2 24.1 0.00 0.00 0.00 39 1028.3
20200224150356 22 41 8.0 24.1 0.00 0.00 0.00 34 1028.4
20200224145350 22 200 12.9 27.4 0.00 0.00 0.00 33 1028.4
20200224144346 22 252 4.8 27.4 0.00 0.00 0.00 30 1028.3
20200224143330 22 72 6.4 27.4 0.00 0.00 0.00 29 1028.5
20200224142327 22 183 4.8 24.1 0.00 0.00 0.00 26 1028.5
20200224141321 23 207 16.1 45.1 0.00 0.00 0.00 26 1028.7
20200224140309 23 208 6.4 45.1 0.00 0.00 0.00 21 1028.7
20200224135257 23 152 14.5 27.4 0.00 0.00 0.00 21 1029.1
20200224134257 23 210 19.3 45.1 0.00 0.00 0.00 21 1029.2
20200224133246 23 312 19.3 32.2 0.00 0.00 0.00 21 1029.3
20200224132239 23 321 12.9 27.4 0.00 0.00 0.00 21 1029.4
20200224131238 23 269 0.0 27.4 0.00 0.00 0.00 21 1029.4
20200224130226 24 39 9.7 27.4 0.00 0.00 0.00 20 1029.4
20200224125233 24 67 9.7 37.0 0.00 0.00 0.00 20 1029.4
20200224124222 25 326 11.3 32.2 0.00 0.00 0.00 19 1029.3
20200224123210 25 3 11.3 20.9 0.00 0.00 0.00 19 1029.3
20200224122202 25 280 8.0 37.0 0.00 0.00 0.00 19 1029.5
20200224121157 25 95 14.5 32.2 0.00 0.00 0.00 19 1029.3
20200224120146 25 104 3.2 37.0 0.00 0.00 0.00 18 1029.4
20200224115149 25 356 4.8 32.2 0.00 0.00 0.00 18 1029.5
20200224114148 25 26 11.3 37.0 0.00 0.00 0.00 18 1029.4
20200224113146 25 16 12.9 48.3 0.00 0.00 0.00 18 1029.4
20200224112131 25 78 3.2 40.2 0.00 0.00 0.00 18 1029.2
20200224111126 25 185 16.1 27.4 0.00 0.00 0.00 18 1028.9
20200224110129 25 229 9.7 24.1 0.00 0.00 0.00 19 1028.7
20200224105121 25 131 12.9 27.4 0.00 0.00 0.00 18 1028.7
20200224104121 25 271 4.8 24.1 0.00 0.00 0.00 18 1028.7
20200224103108 25 108 8.0 45.1 0.00 0.00 0.00 18 1028.6
20200224102119 25 338 14.5 20.9 0.00 0.00 0.00 18 1028.7
20200224101056 25 307 3.2 20.9 0.00 0.00 0.00 18 1028.6
20200224100047 24 345 3.2 20.9 0.00 0.00 0.00 18 1028.3
20200224095049 24 310 8.0 32.2 0.00 0.00 0.00 18 1028.4
20200224093037 23 331 40.2 45.1 0.00 0.00 0.00 18 1028.1
20200224092048 23 334 3.2 24.1 0.00 0.00 0.00 20 1028.2
20200224091037 23 326 3.2 24.1 0.00 0.00 0.00 20 1028.2
20200224090039 23 309 3.2 32.2 0.00 0.00 0.00 19 1028.1
20200224085027 23 321 12.9 32.2 0.00 0.00 0.00 17 1028.0
20200224084044 23 334 12.9 37.0 0.00 0.00 0.00 17 1027.8
20200224083028 23 325 22.5 37.0 0.00 0.00 0.00 17 1027.7
20200224082040 23 3 6.4 24.1 0.00 0.00 0.00 16 1027.5
20200224081021 23 345 12.9 32.2 0.00 0.00 0.00 19 1027.4
20200224080023 23 329 14.5 32.2 0.00 0.00 0.00 16 1027.3
20200224075020 23 334 16.1 32.2 0.00 0.00 0.00 17 1027.1
20200224074017 23 273 6.4 37.0 0.00 0.00 0.00 17 1027.1
20200224073018 23 316 12.9 24.1 0.00 0.00 0.00 17 1026.8
20200224072021 23 321 8.0 16.1 0.00 0.00 0.00 22 1026.6
20200224070958 23 201 3.2 20.9 0.00 0.00 0.00 18 1026.4
20200224065957 23 333 4.8 27.4 0.00 0.00 0.00 17 1026.1
20200224064956 23 309 1.6 24.1 0.00 0.00 0.00 20 1026.1
20200224063954 23 343 9.7 24.1 0.00 0.00 0.00 20 1026.0
20200224062945 23 201 3.2 20.9 0.00 0.00 0.00 17 1025.9
20200224061952 23 338 16.1 27.4 0.00 0.00 0.00 17 1026.0
20200224060946 23 352 9.7 27.4 0.00 0.00 0.00 19 1026.0
20200224055939 23 309 14.5 32.2 0.00 0.00 0.00 17 1025.7
20200224054926 23 309 9.7 27.4 0.00 0.00 0.00 17 1025.7
20200224053926 22 9 4.8 32.2 0.00 0.00 0.00 16 1025.6
20200224052926 23 341 19.3 24.1 0.00 0.00 0.00 20 1025.7
20200224051929 23 336 12.9 27.4 0.00 0.00 0.00 18 1025.8
20200224050915 22 27 0.0 27.4 0.00 0.00 0.00 19 1025.8
20200224045918 22 330 16.1 32.2 0.00 0.00 0.00 17 1025.8
20200224044908 22 327 14.5 32.2 0.00 0.00 0.00 17 1025.9
20200224043905 22 263 4.8 32.2 0.00 0.00 0.00 22 1025.9
20200224042859 21 323 17.7 32.2 0.00 0.00 0.00 18 1026.1
20200224041857 21 325 12.9 20.9 0.00 0.00 0.00 20 1026.2
20200224040859 22 340 14.5 20.9 0.00 0.00 0.00 21 1026.3
20200224035846 22 315 3.2 20.9 0.00 0.00 0.00 19 1026.3
20200224034836 23 341 14.5 24.1 0.00 0.00 0.00 22 1026.3
20200224033837 23 322 14.5 32.2 0.00 0.00 0.00 17 1026.5
20200224032837 22 336 24.1 32.2 0.00 0.00 0.00 17 1026.6
20200224031837 22 324 12.9 27.4 0.00 0.00 0.00 18 1026.6
20200224030832 22 337 9.7 32.2 0.00 0.00 0.00 19 1026.7
20200224025821 22 351 17.7 27.4 0.00 0.00 0.00 22 1026.8
20200224024817 22 318 9.7 32.2 0.00 0.00 0.00 20 1026.8
20200224023807 22 254 12.9 32.2 0.00 0.00 0.00 17 1027.0
20200224022806 21 268 6.4 20.9 0.00 0.00 0.00 17 1026.8
20200224021810 20 346 9.7 27.4 0.00 0.00 0.00 19 1027.0
20200224020756 18 345 17.7 27.4 0.00 0.00 0.00 22 1027.0
20200224015756 18 307 4.8 12.9 0.00 0.00 0.00 32 1027.0
20200224014756 19 319 8.0 12.9 0.00 0.00 0.00 33 1027.1
20200224013757 19 330 8.0 16.1 0.00 0.00 0.00 30 1027.0
20200224012756 19 308 4.8 12.9 0.00 0.00 0.00 27 1026.8
20200224011757 20 26 8.0 12.9 0.00 0.00 0.00 28 1027.0
20200224010746 21 310 6.4 12.9 0.00 0.00 0.00 28 1026.7
20200224005754 22 349 6.4 16.1 0.00 0.00 0.00 26 1026.5
20200224004741 23 279 0.0 24.1 0.00 0.00 0.00 19 1026.3
20200224003739 23 330 16.1 32.2 0.00 0.00 0.00 21 1026.1
20200224002738 23 354 16.1 37.0 0.00 0.00 0.00 17 1026.1
20200224001739 23 326 9.7 20.9 0.00 0.00 0.00 16 1026.1
20200224000727 23 320 4.8 20.9 0.00 0.00 0.00 16 1026.2
20200223235737 23 330 12.9 24.1 0.00 0.00 0.00 15 1026.3
20200223234728 23 331 8.0 27.4 0.00 0.00 0.00 15 1026.2
20200223233726 21 343 20.9 24.1 0.00 0.00 0.00 15 1026.4
20200223232725 20 324 16.1 24.1 0.00 0.00 0.00 19 1026.4
20200223231725 20 330 16.1 20.9 0.00 0.00 0.00 24 1026.6
20200223230729 20 327 1.6 16.1 0.00 0.00 0.00 23 1026.5
20200223225729 20 331 9.7 16.1 0.00 0.00 0.00 27 1026.4
20200223224725 20 333 8.0 24.1 0.00 0.00 0.00 25 1026.0
20200223223730 20 325 6.4 20.9 0.00 0.00 0.00 20 1026.2
20200223222733 20 343 14.5 20.9 0.00 0.00 0.00 24 1026.2
20200223221725 20 331 3.2 16.1 0.00 0.00 0.00 25 1026.0
20200223220724 20 319 3.2 20.9 0.00 0.00 0.00 19 1025.9
20200223215730 20 324 8.0 16.1 0.00 0.00 0.00 27 1026.0
20200223214725 20 318 6.4 16.1 0.00 0.00 0.00 22 1025.8
20200223213726 20 341 9.7 20.9 0.00 0.00 0.00 23 1025.9
20200223212725 20 348 8.0 12.9 0.00 0.00 0.00 22 1025.8
20200223211722 20 337 3.2 16.1 0.00 0.00 0.00 20 1025.8
20200223210724 20 324 6.4 16.1 0.00 0.00 0.00 20 1025.7
20200223205723 19 335 1.6 12.9 0.00 0.00 0.00 24 1025.6
20200223204721 19 329 8.0 20.9 0.00 0.00 0.00 27 1025.3
20200223203720 19 311 6.4 16.1 0.00 0.00 0.00 22 1025.5
20200223202720 19 335 9.7 20.9 0.00 0.00 0.00 32 1025.7
20200223201723 20 333 9.7 16.1 0.00 0.00 0.00 26 1025.6
20200223200737 20 339 9.7 12.9 0.00 0.00 0.00 32 1025.8
20200223195723 21 326 6.4 16.1 0.00 0.00 0.00 34 1025.8
20200223194720 21 327 4.8 12.9 0.00 0.00 0.00 21 1025.5
20200223193723 21 146 0.0 12.9 0.00 0.00 0.00 18 1025.2
20200223192719 21 174 0.0 20.9 0.00 0.00 0.00 19 1024.6
20200223191718 22 318 8.0 12.9 0.00 0.00 0.00 20 1024.6
20200223190724 22 313 6.4 16.1 0.00 0.00 0.00 22 1024.9
20200223185722 23 206 1.6 12.9 0.00 0.00 0.00 16 1025.0
20200223184718 23 141 9.7 32.2 0.00 0.00 0.00 15 1025.2
20200223183719 23 341 16.1 32.2 0.00 0.00 0.00 15 1025.2
20200223182725 22 351 11.3 27.4 0.00 0.00 0.00 15 1025.1
20200223181719 22 243 3.2 12.9 0.00 0.00 0.00 25 1025.0
20200223180717 22 354 4.8 16.1 0.00 0.00 0.00 25 1024.9